Helicity
53 64 89 41 42 46 61 25 38 21 32 51 66 57 -23 28 7 36 -15 31 34 15 6 -7 -19 -19 -18 -14 -20 -18 -13 -10 -8 -10 -4 18 23 30 34 37 41 49 42 41 41 38 34 30 23
75 61 52 51 51 93 33 -39 4 35 35 12 27 26 -5 -14 -8 -18 7 -5 14 4 -8 -12 -13 -15 -10 -15 -20 -22 -26 -19 -17 -20 -23 -22 20 28 37 43 52 55 50 45 40 37 32 30 24
101 56 63 39 44 110 8 -33 67 35 -11 3 16 80 47 12 -31 -24 17 18 25 -36 34 1 -5 -4 -7 -7 -16 -18 -20 -21 -21 -17 -17 -22 -32 9 39 51 56 57 53 46 37 29 25 25 24
83 59 60 42 108 11 -48 24 21 15 38 59 -1 13 44 76 23 33 76 29 53 99 44 22 15 8 -5 -7 -5 -4 -1 -4 -8 -13 -20 -21 -20 -30 -22 39 54 54 48 43 34 29 18 3 -0
87 85 48 26 60 6 42 26 -31 -29 -18 3 28 25 36 83 98 71 51 102 79 66 32 28 29 19 13 3 12 16 12 11 7 -2 -7 -20 -21 -28 -40 -43 -21 -1 7 -0 -9 -26 -29 -21 -9
86 83 36 27 51 -16 -9 -11 -27 1 2 29 27 37 28 45 69 59 57 87 89 46 45 19 19 25 16 14 13 29 25 27 24 14 6 -6 -14 -17 -39 -44 -38 -26 -15 -5 -1 -2 -14 -15 -3
73 70 48 50 21 44 14 -14 -10 22 23 1 10 54 37 18 75 63 66 82 93 32 50 36 25 23 21 23 19 14 23 31 45 31 14 3 8 6 -12 -30 -35 -18 31 30 30 27 24 16 10
93 68 45 72 40 6 50 -5 26 22 118 89 50 36 30 53 96 43 88 78 77 45 28 20 27 8 7 25 36 36 36 45 42 33 18 8 2 12 9 12 4 9 17 20 20 17 11 8 6
129 104 44 84 67 83 55 66 94 103 91 48 103 123 104 146 86 65 85 77 63 33 25 32 4 5 9 16 18 35 41 37 26 5 -4 -7 -8 20 24 20 10 6 5 6 8 7 7 5 2
110 67 86 41 52 70 26 42 67 80 65 104 110 135 168 122 66 88 87 65 55 37 51 51 9 45 48 23 -20 -4 1 -15 -10 2 -1 -2 35 19 26 24 20 19 13 12 9 14 27 40 22
117 64 78 71 166 126 35 43 60 48 53 50 77 151 124 81 59 73 54 47 47 38 65 53 74 95 53 6 -2 -8 -25 -5 6 8 17 28 34 33 22 11 -1 16 17 9 20 2 13 27 34
122 66 134 118 137 159 60 96 64 55 108 141 113 128 86 51 58 62 62 56 78 115 111 108 92 76 35 29 18 -13 18 -2 8 8 42 12 28 22 19 18 12 8 22 15 22 25 18 18 22
90 101 113 106 85 159 89 97 72 112 138 228 145 155 107 70 78 90 50 59 120 126 65 44 86 79 40 42 -0 47 77 67 34 59 28 7 39 27 34 40 28 37 24 29 30 34 34 35 34
49 154 119 117 83 149 136 147 138 132 126 138 150 107 105 71 26 67 48 82 153 104 53 8 26 54 50 61 59 87 76 42 77 52 46 40 47 43 39 48 44 44 40 42 33 29 30 28 31
126 160 105 100 113 125 138 123 110 150 126 102 105 104 91 82 45 73 94 128 147 81 59 35 9 41 75 82 85 89 88 88 72 65 42 41 55 39 52 51 43 47 48 36 40 40 39 38 36
149 139 156 111 126 161 190 89 81 138 103 96 86 105 107 102 68 93 100 108 128 96 90 62 46 76 106 85 83 81 85 74 52 54 65 64 68 79 61 61 45 70 50 46 47 45 46 43 41
147 172 147 148 121 185 199 102 204 166 102 86 90 146 153 139 106 138 115 116 114 100 109 91 80 90 109 90 84 80 81 59 64 69 66 69 66 72 60 69 67 53 50 46 49 44 47 45 41
200 185 137 216 163 183 147 180 211 145 116 117 115 147 124 148 159 195 167 133 119 125 140 138 117 95 99 104 98 103 93 84 82 73 71 86 90 87 89 85 77 65 52 42 46 52 51 45 47
113 129 105 128 99 164 138 173 167 118 135 143 119 143 140 176 275 345 354 318 254 154 178 176 152 114 119 131 117 123 109 99 119 116 127 120 114 117 106 92 71 66 70 63 64 59 63 54 47
128 132 96 329 175 156 114 103 166 98 112 155 148 159 154 262 232 232 241 235 230 223 171 179 148 125 124 130 109 113 103 108 105 133 136 147 139 117 111 108 96 88 84 89 82 73 63 54 56
166 199 155 174 194 158 167 92 155 123 131 202 237 215 208 180 151 167 165 164 189 180 223 174 168 140 119 111 104 130 161 186 185 162 160 142 124 115 105 99 88 82 73 76 74 71 74 60 51
176 204 177 157 238 136 132 79 126 220 166 148 128 153 155 177 224 179 165 189 233 256 260 224 178 169 146 137 155 204 198 180 141 142 160 180 144 114 88 79 81 83 90 75 64 71 57 61 59
159 199 175 166 138 118 144 119 85 190 179 144 107 133 152 143 156 171 238 204 214 245 292 305 196 209 198 196 218 192 163 166 249 261 216 188 174 128 114 104 97 90 61 52 53 56 56 57 66
162 259 246 190 171 133 108 119 49 146 146 106 160 175 223 213 240 241 199 181 199 246 296 356 354 380 281 279 218 174 296 403 322 241 218 176 164 144 154 130 114 95 88 74 59 50 49 50 54
201 205 242 212 187 95 131 93 54 202 247 154 168 259 248 209 194 157 154 180 197 242 318 383 403 466 476 437 390 392 414 386 328 263 220 202 209 181 149 126 102 91 76 66 52 46 42 42 53
264 248 218 288 207 156 186 103 75 232 239 200 355 315 256 194 194 195 171 171 180 234 300 369 434 485 458 455 477 475 426 388 352 328 334 306 243 190 157 125 112 106 91 77 69 60 66 82 87
249 226 211 186 217 93 70 120 145 177 266 247 285 257 206 232 216 184 193 187 194 238 290 325 386 436 433 438 448 460 462 457 431 386 354 297 246 202 165 135 114 98 85 82 84 82 90 106 111
228 295 245 288 231 213 66 95 70 181 137 187 185 216 201 246 237 218 237 237 250 276 300 320 334 374 399 450 463 458 445 425 400 365 337 305 272 223 178 154 130 115 107 105 97 82 93 114 112
371 290 289 297 283 280 136 109 74 81 154 217 265 269 295 296 282 282 271 254 275 287 300 330 348 365 409 397 440 454 447 414 390 372 341 284 257 209 182 155 135 120 106 87 78 96 120 125 119
267 268 295 323 364 306 177 126 92 104 97 253 275 305 325 277 275 267 263 264 272 288 307 313 338 362 366 390 414 422 419 399 375 338 319 275 224 187 164 138 115 97 84 88 96 117 123 118 109
Wind_Speed
44 43 42 38 37 40 42 30 10 25 29 28 22 18 19 14 26 37 58 60 64 62 61 59 59 58 59 59 59 58 58 57 56 55 20 19 22 21 20 22 20 20 25 26 26 30 35 37 38
44 41 39 40 43 43 29 31 33 20 27 30 32 31 21 21 21 43 51 63 62 60 60 58 58 58 58 58 58 58 58 58 57 55 55 46 10 16 15 17 21 23 23 26 30 33 35 38 39
43 41 43 44 46 35 42 40 20 26 36 38 34 18 25 32 35 48 59 61 57 57 55 56 56 56 56 56 57 57 57 58 57 57 55 54 47 6 11 14 16 20 24 26 30 34 38 40 36
43 44 45 50 47 25 32 27 22 32 30 31 26 26 24 29 29 25 44 51 48 39 44 48 50 51 52 52 53 55 55 56 56 56 55 55 53 51 26 9 14 18 21 26 30 34 33 22 13
45 47 53 56 48 32 27 26 37 43 37 38 39 28 27 11 16 31 38 32 36 35 38 42 44 45 46 48 49 51 52 52 53 54 54 53 53 53 49 40 25 14 10 11 12 11 11 13 14
49 48 57 61 52 33 38 42 43 31 31 30 25 20 27 11 16 24 28 29 29 33 35 38 39 40 41 41 44 46 48 48 49 50 52 51 51 52 49 43 33 23 15 12 14 15 14 15 16
50 55 60 59 46 37 40 45 46 30 29 40 15 22 11 5 14 19 22 24 24 29 30 31 32 33 34 34 37 42 43 44 42 45 47 48 48 48 48 46 46 46 34 34 31 31 32 33 31
48 50 62 57 48 48 36 46 41 32 25 14 27 30 7 22 18 18 16 18 21 22 26 28 29 30 30 29 32 35 37 38 39 40 43 45 45 44 45 43 43 43 42 40 38 38 39 40 40
46 49 63 62 45 28 35 41 41 31 22 30 30 24 16 21 18 16 17 17 18 21 26 29 30 33 32 30 31 30 32 34 36 38 41 41 40 40 39 39 40 40 40 40 39 39 38 38 39
52 52 48 51 54 28 37 37 36 38 20 23 22 9 18 20 20 19 18 18 18 20 20 24 30 29 29 29 30 29 31 32 34 35 36 35 35 35 36 36 36 36 36 37 37 35 33 28 28
54 59 63 42 32 31 29 44 22 33 35 17 2 13 16 20 19 18 17 17 16 16 14 16 16 22 23 27 28 27 29 29 28 31 32 31 31 32 32 33 33 32 31 30 29 31 36 39 38
57 64 54 40 41 38 29 31 34 44 29 18 14 14 14 18 19 18 16 16 16 11 10 11 11 15 21 24 24 27 24 27 26 27 27 29 28 29 28 29 30 29 34 34 36 37 35 34 35
70 52 56 40 39 46 30 39 36 30 15 16 11 11 11 12 13 12 15 15 12 10 7 7 13 12 13 17 22 18 16 18 19 21 24 26 26 27 29 31 33 34 35 37 39 40 41 43 42
55 58 45 45 39 41 37 36 33 31 15 15 7 5 8 11 14 14 16 16 11 10 13 15 12 11 10 12 13 14 15 16 17 20 22 23 25 26 28 29 33 35 37 40 41 42 43 44 44
61 58 46 48 41 44 41 44 48 24 19 17 15 6 4 7 10 7 8 6 5 9 13 15 21 12 12 8 9 13 15 15 17 19 19 21 24 26 29 29 30 31 36 39 42 43 44 44 45
58 55 64 54 40 42 42 59 42 26 25 25 19 13 9 6 7 7 8 6 6 7 10 11 13 6 6 7 9 12 15 16 15 17 19 23 25 29 30 33 34 34 37 39 43 44 45 48 47
65 68 63 51 43 44 45 60 31 31 30 26 20 17 15 11 5 4 7 5 6 6 7 9 8 6 4 5 8 12 12 15 17 17 19 21 24 26 32 33 34 36 36 40 40 43 41 45 49
66 71 58 55 54 50 39 49 35 34 34 31 23 20 15 13 12 8 3 3 4 4 6 6 3 4 2 4 8 12 12 18 17 18 19 21 23 26 31 33 34 37 38 39 39 42 45 48 48
60 68 60 61 49 50 61 61 49 40 42 34 26 20 20 12 17 21 22 23 21 4 4 6 5 4 4 1 3 7 8 13 19 21 23 21 23 25 29 32 34 36 39 42 44 44 48 49 52
80 68 73 44 39 50 64 72 47 32 37 36 30 25 18 21 21 24 28 31 32 28 6 5 4 5 3 1 4 6 9 12 15 19 21 23 23 26 29 32 35 38 41 45 46 46 48 47 51
82 76 62 52 43 55 57 74 61 42 41 45 42 36 25 26 21 23 27 31 35 36 37 6 8 9 7 2 3 9 10 12 14 16 19 22 23 26 29 32 35 39 41 43 46 47 49 51 52
83 67 58 47 50 65 52 73 65 38 39 37 37 33 25 35 31 24 26 28 33 37 43 32 7 10 10 6 2 3 6 8 10 12 16 21 23 27 30 34 37 39 42 45 44 44 45 47 52
76 56 50 48 53 56 61 69 65 38 50 41 28 25 21 26 25 23 29 31 36 38 39 39 11 7 7 5 3 4 7 8 9 13 16 21 26 29 34 36 38 40 41 43 44 46 47 49 53
56 53 49 51 56 78 61 62 65 49 34 32 29 25 22 24 26 28 31 31 32 34 33 30 16 20 12 7 5 5 6 6 9 13 16 21 25 31 38 38 40 41 43 44 46 48 50 52 54
65 64 71 79 80 81 60 65 62 47 46 37 25 23 20 20 21 21 23 25 26 25 24 24 18 18 16 13 13 8 7 8 10 13 16 20 26 34 39 39 40 41 43 44 46 49 50 54 57
78 76 76 90 86 80 60 73 59 46 39 28 21 20 19 19 17 19 19 18 18 19 19 18 16 14 13 11 10 10 10 11 12 15 19 24 29 33 36 37 38 41 43 46 50 51 54 57 60
85 98 65 68 65 75 75 69 54 46 40 21 17 20 21 18 19 18 17 15 15 15 15 14 12 12 12 9 8 10 11 10 13 16 21 24 28 30 34 36 39 42 46 50 53 57 61 64 66
77 71 86 75 91 90 74 72 73 57 47 36 28 22 19 18 18 16 16 15 15 13 11 9 7 6 7 9 9 9 10 13 14 16 20 24 27 31 33 37 41 45 49 54 58 61 63 67 69
75 84 79 77 76 90 79 77 51 55 48 38 34 30 26 23 20 18 15 12 10 8 8 7 7 6 8 8 9 10 12 14 15 19 22 25 28 31 36 40 43 47 52 56 59 63 67 72 73
84 84 83 88 91 81 85 92 41 47 41 36 30 28 28 25 19 16 13 11 9 7 7 7 8 8 8 9 9 11 13 15 17 21 24 26 29 33 38 42 46 50 54 58 62 68 73 76 78
Wind_Direction
217 215 212 212 206 193 189 222 290 213 204 198 202 199 190 197 188 176 153 143 120 116 122 125 121 119 115 111 109 112 111 112 113 112 144 14 19 19 18 21 20 20 25 23 19 17 18 17 18
224 226 221 209 196 188 216 194 198 213 198 196 189 187 197 194 189 165 161 134 120 114 122 119 118 117 112 112 107 108 110 107 110 112 111 126 354 9 8 11 16 16 15 15 16 15 13 14 16
224 226 213 206 192 203 198 198 221 210 195 194 200 218 206 188 180 166 139 120 108 117 105 108 110 108 109 109 106 102 106 104 107 106 109 111 126 217 349 355 358 5 8 8 10 12 13 16 12
218 218 218 202 191 240 200 212 221 210 214 214 209 209 214 208 205 205 95 106 98 80 90 98 101 102 105 105 104 101 100 103 104 104 107 107 111 117 168 314 338 347 353 359 4 8 5 347 320
219 218 206 195 198 216 219 222 210 204 210 208 206 212 212 267 39 81 92 81 87 77 85 93 97 97 97 100 98 97 97 96 98 100 102 106 108 109 119 139 169 208 258 281 285 259 266 302 307
218 219 201 192 199 221 212 206 206 221 220 221 227 233 230 282 59 78 83 80 77 79 84 92 94 94 95 92 94 94 96 89 86 89 93 97 103 98 111 127 149 176 209 261 293 302 292 294 301
224 219 205 200 219 225 218 207 207 228 231 218 257 256 289 4 72 77 78 76 71 76 81 83 85 84 84 82 86 92 88 85 74 77 85 91 88 83 95 105 100 78 18 16 1 357 359 2 353
232 232 216 213 225 220 228 211 217 233 243 264 252 257 5 102 91 83 70 69 72 73 80 88 85 88 80 72 76 81 79 75 74 74 83 88 88 81 77 70 72 66 50 36 26 24 29 31 26
235 236 222 212 227 238 227 226 225 244 249 249 249 275 89 105 97 87 79 72 71 82 89 93 95 101 94 83 80 76 76 78 77 84 93 97 95 84 69 69 71 66 63 56 52 55 55 48 36
235 237 237 235 232 246 234 236 238 239 261 260 274 353 86 101 104 101 94 89 84 91 84 85 101 97 90 87 96 86 90 90 88 93 106 113 71 80 64 71 71 71 74 67 61 64 69 86 75
239 236 232 257 256 248 245 236 262 247 251 275 53 97 98 106 106 105 100 96 89 92 76 82 63 80 83 93 100 95 102 92 83 91 99 74 65 75 83 74 77 76 77 74 75 62 22 354 344
242 238 245 259 252 251 250 249 252 244 266 290 120 117 109 117 117 115 105 101 94 68 58 358 54 78 91 92 95 106 90 95 90 90 55 80 52 40 80 72 57 61 21 26 14 6 24 26 14
239 250 245 256 258 252 256 253 258 260 288 295 112 121 121 118 114 106 113 108 88 65 52 61 331 84 72 81 103 71 40 40 47 44 65 55 47 44 19 12 9 8 11 1 355 351 343 340 344
248 249 251 252 256 257 256 258 262 261 280 286 283 152 130 138 136 125 129 121 105 102 100 120 99 84 87 46 63 23 45 57 36 48 59 76 27 19 13 14 3 2 353 351 347 346 343 338 342
251 242 250 252 251 257 257 259 256 265 274 271 277 253 187 162 153 154 137 124 103 115 118 124 132 95 103 12 16 358 359 10 9 20 48 49 15 10 2 10 10 9 357 350 345 343 343 344 343
241 244 244 248 247 258 254 258 258 261 267 267 266 264 259 208 185 166 151 147 131 124 129 124 126 90 64 350 360 342 340 354 15 21 10 1 5 356 356 353 357 2 356 352 343 345 344 340 343
238 241 242 245 244 255 252 258 257 257 263 266 264 262 268 268 240 212 160 155 140 130 126 127 123 118 62 350 338 333 348 343 351 6 12 8 4 3 353 356 0 360 0 355 354 348 353 348 342
237 240 243 245 245 252 246 259 261 264 264 263 264 265 264 257 264 276 263 251 158 146 129 125 104 107 79 344 327 324 337 326 340 351 359 1 2 358 354 360 359 358 358 358 357 353 348 345 344
245 241 246 247 250 247 249 249 255 264 263 260 259 258 263 256 276 278 281 282 287 264 158 146 134 132 126 350 346 339 346 333 331 336 344 2 1 1 359 0 359 359 355 351 348 349 345 343 342
239 244 241 254 246 249 249 247 255 255 261 258 259 259 253 264 268 273 275 275 273 279 256 191 175 157 175 296 323 338 341 338 338 339 345 350 358 358 357 355 353 352 350 346 345 345 342 344 345
239 242 241 248 249 254 255 248 250 253 257 255 256 260 260 262 265 271 273 274 272 271 273 214 171 155 151 145 340 331 340 345 346 350 350 352 358 356 356 353 349 347 347 345 343 342 341 339 340
236 242 249 242 246 251 251 252 249 243 250 251 254 256 258 261 267 272 274 275 272 268 266 273 183 164 158 144 134 348 329 339 351 358 359 357 360 357 354 350 347 345 344 342 343 344 344 342 339
238 242 246 245 249 256 249 252 253 242 250 248 232 239 246 260 264 270 272 274 272 270 268 270 263 200 193 201 214 295 316 340 3 360 1 356 355 353 350 348 347 346 346 346 345 343 342 341 337
242 236 245 250 251 249 249 250 255 247 249 242 236 233 241 256 265 272 274 276 276 275 274 276 274 283 271 251 255 245 302 335 341 342 342 346 350 349 346 346 346 347 346 345 344 343 341 340 338
231 228 238 241 242 246 248 252 256 257 258 259 209 219 233 248 263 274 277 278 279 280 280 279 277 283 288 287 295 293 298 312 323 330 336 341 341 340 342 344 346 347 347 347 346 345 344 341 338
226 227 237 239 241 246 253 252 254 259 271 269 229 230 238 245 255 271 279 282 285 288 286 282 279 279 290 293 301 308 312 317 327 334 338 338 339 342 345 346 348 348 347 347 345 345 343 341 338
230 232 242 248 252 249 249 255 262 261 259 257 239 238 238 241 254 264 275 282 290 297 296 290 286 288 295 297 302 313 319 326 332 336 338 340 342 344 345 346 345 345 345 344 343 340 338 338 337
236 234 235 244 241 244 251 252 253 251 254 250 247 243 236 244 251 258 269 279 292 301 311 319 320 315 316 318 321 325 333 337 343 347 344 344 343 344 344 343 342 342 341 341 339 338 338 337 336
234 232 239 242 245 243 249 255 263 258 252 245 247 247 242 247 250 257 266 277 290 308 324 336 343 346 343 347 345 345 345 348 355 346 347 345 345 344 341 340 339 338 338 338 337 337 336 335 334
236 236 236 240 242 248 252 253 274 266 261 246 247 247 243 244 246 250 257 265 279 296 312 321 332 340 347 350 353 350 352 351 351 350 349 345 342 341 339 337 336 336 337 336 336 335 334 333 333